Erie, PA

9:28 AM EDT on October 21, 2019 (GMT -0400)
Erie International

Weather History for KERI - August, 2019

Change the Weather History Date:

Friday, August 2, 2019

  Actual Average Record
Temperature  
Mean Temperature 72 °F 72 °F  
Max Temperature 82 °F 80 °F 93 °F (2006)
Min Temperature 62 °F 64 °F 51 °F (1962)
Degree Days  
Heating Degree Days 0 0  
Month to date heating degree days 0 0  
Since 1 June heating degree days 38 68  
Since 1 July heating degree days 0 7  
Cooling Degree Days 7 7  
Month to date cooling degree days 15 14  
Year to date cooling degree days 480 389  
Since 1 June cooling degree days 447 350  
Growing Degree Days 22 (Base 50)    
Moisture  
Dew Point 60 °F    
Average Humidity 62    
Maximum Humidity 84    
Minimum Humidity 40    
Precipitation  
Precipitation 0.00 in 0.12 in 2.73 in (1987)
Month to date precipitation 0.00 0.24  
Year to date precipitation 22.50 22.60  
Snow  
Snow 0.00 in 0.00 in - ()
Month to date snowfall 0.0 0.0  
Since 1 June snowfall 0.0 0.0  
Since 1 July snowfall 0.0 0.0  
Snow Depth 0.00 in    
Sea Level Pressure  
Sea Level Pressure 30.10 in    
Wind  
Wind Speed 6 mph (NNE)    
Max Wind Speed 15 mph    
Max Gust Speed 18 mph    
Visibility 10 miles    
Events      
T = Trace of Precipitation, MM = Missing Value Source: NWS Daily Summary

Daily Weather History Graph

Daily Weather History Graph

Search for Another Location

Airport or City:

Astronomy

Aug. 02, 2019 Rise Set
Actual Time 6:14 AM EDT 8:38 PM EDT
Civil Twilight 5:43 AM EDT 9:09 PM EDT
Nautical Twilight 5:04 AM EDT 9:48 PM EDT
Astronomical Twilight 4:20 AM EDT 10:32 PM EDT
Moon 7:52 AM EDT (8/2) 10:04 PM EDT (8/2)
Length of Visible Light 15h 26m
Length of Day
14h 23m
Waxing Crescent, 4% of the Moon is Illuminated
Aug 2
Waxing Crescent
Aug 7
First Quarter
Aug 15
Full
Aug 23
Last Quarter
Aug 30
New

Hourly Weather History & Observations

Time (EDT) Temp. Heat Index Dew Point Humidity Pressure Visibility Wind Dir Wind Speed Gust Speed Precip Events Conditions
12:51 AM 66.9 °F - 59.0 °F 76% 30.13 in 10.0 mi Calm Calm - N/A   Clear
1:51 AM 66.9 °F - 59.0 °F 76% 30.12 in 10.0 mi Calm Calm - N/A   Partly Cloudy
2:51 AM 66.0 °F - 59.0 °F 78% 30.12 in 10.0 mi Calm Calm - N/A   Scattered Clouds
3:51 AM 66.0 °F - 59.0 °F 78% 30.11 in 10.0 mi Calm Calm - N/A   Clear
4:51 AM 62.1 °F - 57.9 °F 86% 30.12 in 10.0 mi Calm Calm - N/A   Clear
5:51 AM 62.1 °F - 57.9 °F 86% 30.12 in 10.0 mi Calm Calm - N/A   Scattered Clouds
6:51 AM 63.0 °F - 57.9 °F 84% 30.12 in 10.0 mi Calm Calm - N/A   Clear
7:51 AM 70.0 °F - 60.1 °F 71% 30.12 in 10.0 mi Calm Calm - N/A   Clear
8:51 AM 75.0 °F - 60.1 °F 60% 30.12 in 10.0 mi Variable 5.8 mph - N/A   Clear
9:51 AM 78.1 °F - 60.1 °F 54% 30.12 in 10.0 mi Variable 5.8 mph - N/A   Clear
10:51 AM 79.0 °F - 61.0 °F 54% 30.11 in 10.0 mi NNE 10.4 mph - N/A   Clear
11:51 AM 78.1 °F - 64.9 °F 64% 30.11 in 10.0 mi North 12.7 mph - N/A   Clear
12:51 PM 79.0 °F - 64.9 °F 62% 30.11 in 10.0 mi NE 12.7 mph - N/A   Clear
1:51 PM 80.1 °F 81.7 °F 64.0 °F 58% 30.09 in 10.0 mi NNE 11.5 mph - N/A   Clear
2:51 PM 81.0 °F 82.2 °F 63.0 °F 54% 30.09 in 10.0 mi NNE 10.4 mph 17.3 mph N/A   Clear
3:51 PM 82.0 °F 83.0 °F 62.1 °F 51% 30.08 in 10.0 mi North 10.4 mph - N/A   Clear
4:51 PM 81.0 °F 81.3 °F 59.0 °F 47% 30.08 in 10.0 mi NNE 10.4 mph - N/A   Clear
5:51 PM 82.0 °F 81.6 °F 55.9 °F 41% 30.07 in 10.0 mi NNE 9.2 mph - N/A   Clear
6:51 PM 80.1 °F 80.6 °F 57.9 °F 47% 30.06 in 10.0 mi NNE 8.1 mph - N/A   Clear
7:51 PM 79.0 °F - 59.0 °F 50% 30.05 in 10.0 mi North 5.8 mph - N/A   Clear
8:51 PM 75.9 °F - 57.9 °F 54% 30.06 in 10.0 mi ENE 4.6 mph - N/A   Clear
9:51 PM 73.9 °F - 59.0 °F 59% 30.08 in 10.0 mi ENE 3.5 mph - N/A   Clear
10:51 PM 68.0 °F - 60.1 °F 76% 30.07 in 10.0 mi SSE 3.5 mph - N/A   Clear
11:51 PM 68.0 °F - 60.1 °F 76% 30.07 in 10.0 mi SSW 4.6 mph - N/A   Clear